When you browse on this site, cookies collect data to enhance your experience and personalize the content and advertising you see.
Visit our Privacy Policy to learn more. By continuing to use the site, you agree to this use of cookies and data.
  • In United Kingdom
  • List of Countries
  • For 7 days
  • Water Temperature
  • Satellite Maps
  • Weather Map
  • Weather Widgets
  • user-avatar
    Login

    Hourly Weather Dupli

    Today, 23 April, Tuesday

    Time Temperature Precipitation Wind Pressure Humidity
    00:00 +10°C° 0 mm 1 mps 763 mmHg 59%
    01:00 +9°C° 0 mm 1 mps 763 mmHg 61%
    02:00 +8°C° 0 mm 0 mps 763 mmHg 63%
    03:00 +8°C° 0 mm 0 mps 763 mmHg 64%
    04:00 +8°C° 0 mm 0 mps 763 mmHg 65%
    05:00 +7°C° 0 mm 0 mps 763 mmHg 66%
    06:00 +10°C° 0 mm 0 mps 763 mmHg 60%
    07:00 +12°C° 0 mm 0 mps 764 mmHg 54%
    08:00 +14°C° 0 mm 0 mps 764 mmHg 47%
    09:00 +18°C° 0 mm 1 mps 764 mmHg 41%
    10:00 +20°C° 0 mm 1 mps 764 mmHg 35%
    11:00 +21°C° 0 mm 1 mps 764 mmHg 29%
    12:00 +22°C° 0 mm 1 mps 764 mmHg 28%
    13:00 +22°C° 0 mm 1 mps 764 mmHg 28%
    14:00 +22°C° 0 mm 1 mps 764 mmHg 27%
    15:00 +22°C° 0 mm 1 mps 763 mmHg 28%
    16:00 +21°C° 0 mm 1 mps 763 mmHg 29%
    17:00 +21°C° 0 mm 1 mps 763 mmHg 29%
    18:00 +17°C° 0 mm 0 mps 763 mmHg 35%
    19:00 +15°C° 0 mm 0 mps 763 mmHg 40%
    20:00 +13°C° 0 mm 0 mps 763 mmHg 46%
    21:00 +12°C° 0 mm 0 mps 763 mmHg 48%
    22:00 +11°C° 0 mm 0 mps 763 mmHg 50%
    23:00 +11°C° 0 mm 0 mps 763 mmHg 52%

    Tomorrow, 24 April, Wednesday

    Time Temperature Precipitation Wind Pressure Humidity
    00:00 +10°C° 0 mm 0 mps 763 mmHg 54%
    01:00 +10°C° 0 mm 0 mps 764 mmHg 55%
    02:00 +9°C° 0 mm 0 mps 764 mmHg 57%
    03:00 +9°C° 0 mm 0 mps 764 mmHg 58%
    04:00 +9°C° 0 mm 0 mps 764 mmHg 58%
    05:00 +9°C° 0 mm 0 mps 764 mmHg 59%
    06:00 +11°C° 0 mm 0 mps 764 mmHg 54%
    07:00 +14°C° 0 mm 1 mps 764 mmHg 49%
    08:00 +18°C° 0 mm 1 mps 764 mmHg 44%
    09:00 +19°C° 0 mm 1 mps 764 mmHg 39%
    10:00 +21°C° 0 mm 1 mps 764 mmHg 35%
    11:00 +22°C° 0 mm 1 mps 764 mmHg 30%
    12:00 +21°C° 0 mm 2 mps 763 mmHg 29%
    13:00 +23°C° 0 mm 2 mps 763 mmHg 29%
    14:00 +23°C° 0 mm 2 mps 763 mmHg 29%
    15:00 +23°C° 0 mm 2 mps 763 mmHg 30%
    16:00 +23°C° 0 mm 2 mps 762 mmHg 32%
    17:00 +21°C° 0 mm 2 mps 762 mmHg 34%
    18:00 +19°C° 0 mm 2 mps 762 mmHg 40%
    19:00 +18°C° 0 mm 1 mps 762 mmHg 47%
    20:00 +15°C° 0 mm 1 mps 762 mmHg 53%
    21:00 +15°C° 0 mm 1 mps 762 mmHg 55%
    22:00 +14°C° 0 mm 1 mps 762 mmHg 57%
    23:00 +13°C° 0 mm 1 mps 762 mmHg 59%

    Day after tomorrow, 25 April, Thursday

    Time Temperature Precipitation Wind Pressure Humidity
    00:00 +13°C° 0 mm 1 mps 762 mmHg 60%
    01:00 +12°C° 0 mm 1 mps 762 mmHg 62%
    02:00 +12°C° 0 mm 1 mps 762 mmHg 64%
    03:00 +11°C° 0 mm 1 mps 762 mmHg 66%
    04:00 +11°C° 0 mm 1 mps 762 mmHg 68%
    05:00 +9°C° 0 mm 2 mps 762 mmHg 70%
    06:00 +12°C° 0 mm 2 mps 762 mmHg 65%
    07:00 +14°C° 0 mm 2 mps 762 mmHg 59%
    08:00 +16°C° 0 mm 2 mps 761 mmHg 54%
    09:00 +18°C° 0 mm 2 mps 761 mmHg 47%
    10:00 +19°C° 0 mm 2 mps 761 mmHg 40%
    11:00 +21°C° 0 mm 3 mps 761 mmHg 34%
    12:00 +21°C° 0 mm 3 mps 761 mmHg 33%
    13:00 +22°C° 0 mm 3 mps 760 mmHg 32%
    14:00 +22°C° 0 mm 3 mps 760 mmHg 31%
    15:00 +22°C° 0 mm 3 mps 760 mmHg 33%
    16:00 +23°C° 0 mm 2 mps 759 mmHg 35%
    17:00 +21°C° 0 mm 2 mps 759 mmHg 36%
    18:00 +20°C° 0 mm 2 mps 759 mmHg 41%
    19:00 +18°C° 0 mm 2 mps 759 mmHg 46%
    20:00 +18°C° 0 mm 1 mps 759 mmHg 51%
    21:00 +16°C° 0 mm 2 mps 759 mmHg 53%
    22:00 +16°C° 0 mm 2 mps 758 mmHg 54%
    23:00 +15°C° 0 mm 2 mps 758 mmHg 56%

    26 April, Friday

    Time Temperature Precipitation Wind Pressure Humidity
    00:00 +15°C° 0 mm 2 mps 758 mmHg 57%
    01:00 +15°C° 0 mm 2 mps 758 mmHg 58%
    02:00 +15°C° 0 mm 2 mps 758 mmHg 59%
    03:00 +14°C° 0 mm 2 mps 758 mmHg 62%
    04:00 +14°C° 0 mm 2 mps 758 mmHg 64%
    05:00 +13°C° 0 mm 2 mps 758 mmHg 67%
    06:00 +14°C° 0 mm 2 mps 757 mmHg 64%
    07:00 +15°C° 0 mm 2 mps 757 mmHg 62%
    08:00 +16°C° 0 mm 2 mps 757 mmHg 60%
    09:00 +17°C° 0 mm 2 mps 757 mmHg 53%
    10:00 +19°C° 0 mm 3 mps 757 mmHg 47%
    11:00 +21°C° 0 mm 4 mps 757 mmHg 40%
    12:00 +21°C° 0 mm 3 mps 756 mmHg 40%
    13:00 +22°C° 0 mm 3 mps 756 mmHg 39%
    14:00 +22°C° 0 mm 3 mps 755 mmHg 38%
    15:00 +22°C° 0 mm 3 mps 755 mmHg 40%
    16:00 +22°C° 0 mm 3 mps 755 mmHg 42%
    17:00 +21°C° 0 mm 3 mps 754 mmHg 44%
    18:00 +19°C° 0 mm 2 mps 754 mmHg 53%
    19:00 +17°C° 0 mm 2 mps 754 mmHg 61%
    20:00 +15°C° 0 mm 1 mps 753 mmHg 69%
    21:00 +15°C° 0 mm 1 mps 753 mmHg 70%
    22:00 +14°C° 0 mm 2 mps 753 mmHg 70%
    23:00 +14°C° 0 mm 2 mps 753 mmHg 70%

    27 April, Saturday

    Time Temperature Precipitation Wind Pressure Humidity
    00:00 +14°C° 0 mm 2 mps 752 mmHg 72%
    01:00 +13°C° 0 mm 2 mps 752 mmHg 73%
    02:00 +13°C° 0 mm 2 mps 752 mmHg 74%
    03:00 +12°C° 0 mm 2 mps 752 mmHg 75%
    04:00 +12°C° 0 mm 2 mps 751 mmHg 76%
    05:00 +10°C° 0 mm 2 mps 751 mmHg 77%
    06:00 +13°C° 0 mm 2 mps 751 mmHg 71%
    07:00 +15°C° 0 mm 2 mps 750 mmHg 64%
    08:00 +17°C° 0 mm 2 mps 750 mmHg 57%
    09:00 +19°C° 0 mm 2 mps 750 mmHg 52%
    10:00 +21°C° 0 mm 2 mps 750 mmHg 47%
    11:00 +23°C° 0 mm 2 mps 749 mmHg 42%
    12:00 +24°C° 0 mm 2 mps 749 mmHg 41%
    13:00 +25°C° 0 mm 2 mps 749 mmHg 40%
    14:00 +25°C° 0 mm 2 mps 748 mmHg 39%
    15:00 +25°C° 0 mm 2 mps 748 mmHg 44%
    16:00 +24°C° 0 mm 1 mps 747 mmHg 48%
    17:00 +23°C° 0 mm 1 mps 747 mmHg 52%
    18:00 +22°C° 0.1 mm 1 mps 747 mmHg 59%
    19:00 +19°C° 0.1 mm 2 mps 747 mmHg 65%
    20:00 +17°C° 0.1 mm 2 mps 747 mmHg 71%
    21:00 +17°C° 0 mm 2 mps 747 mmHg 75%
    22:00 +16°C° 0 mm 2 mps 747 mmHg 79%
    23:00 +15°C° 0 mm 2 mps 747 mmHg 82%

    28 April, Sunday

    Time Temperature Precipitation Wind Pressure Humidity
    00:00 +15°C° 0 mm 2 mps 747 mmHg 83%
    01:00 +14°C° 0 mm 2 mps 747 mmHg 84%
    02:00 +14°C° 0 mm 2 mps 747 mmHg 85%
    03:00 +13°C° 0 mm 2 mps 747 mmHg 85%
    04:00 +13°C° 0 mm 2 mps 747 mmHg 85%
    05:00 +13°C° 0 mm 2 mps 747 mmHg 85%
    06:00 +13°C° 0 mm 3 mps 748 mmHg 81%
    07:00 +14°C° 0 mm 3 mps 748 mmHg 76%
    08:00 +16°C° 0 mm 3 mps 748 mmHg 71%
    09:00 +17°C° 0 mm 4 mps 749 mmHg 67%
    10:00 +19°C° 0 mm 4 mps 749 mmHg 63%
    11:00 +20°C° 0 mm 4 mps 749 mmHg 58%
    12:00 +20°C° 0 mm 4 mps 750 mmHg 56%
    13:00 +21°C° 0 mm 4 mps 750 mmHg 54%
    14:00 +21°C° 0 mm 4 mps 750 mmHg 52%
    15:00 +21°C° 0.1 mm 4 mps 750 mmHg 53%
    16:00 +21°C° 0.1 mm 3 mps 750 mmHg 54%
    17:00 +20°C° 0.1 mm 3 mps 750 mmHg 56%
    18:00 +19°C° 0 mm 3 mps 751 mmHg 59%
    19:00 +17°C° 0 mm 3 mps 751 mmHg 62%
    20:00 +16°C° 0 mm 3 mps 751 mmHg 65%
    21:00 +14°C° 0 mm 3 mps 752 mmHg 67%
    22:00 +14°C° 0 mm 3 mps 752 mmHg 68%
    23:00 +13°C° 0 mm 3 mps 752 mmHg 70%
    Show more